SCP
0 0 0 0 0 0 0 0 0 0 0 0 0 0 0 0 0 0 0 0 0 0 0 0 0 0 0 0 0 0 0 0 0 0 0 0 0 0 0 0 0 0 0 0 0 0 0 0 0 0 0 0 0 0
0 0 0 0 0 0 0 0 0 0 0 0 0 0 0 0 0 0 0 0 0 0 0 0 0 0 0 0 0 0 0 0 0 0 0 0 0 0 0 0 0 0 0 0 0 0 0 0 0 0 0 0 0 0
0 0 0 0 0 0 0 0 0 0 0 0 0 0 0 0 0 0 0 0 0 0 0 0 0 0 0 -0 0 0 0 0 0 0 0 0 0 0 0 0 0 0 0 0 0 0 0 0 0 0 0 0 0 0
0 0 0 0 0 0 0 0 0 0 0 0 0 0 0 0 0 0 0 0 0 0 0 0 0 0 0 0 0 0 0 0 0 0 0 0 0 0 0 0 0 0 0 0 0 0 0 0 0 0 0 0 0 0
0 0 0 0 0 0 0 0 0 0 0 0 0 0 0 0 0 0 0 0 0 0 0 0 0 0 0 0 0 0 0 0 0 0 0 0 0 0 0 0 0 0 0 0 0 0 0 0 0 0 0 0 0 0
0 0 0 0 0 0 0 0 0 0 0 0 0 0 0 0 0 0 0 0 -0 0 0 0 0 0 0 0 0 0 0 0 0 0 0 0 0 0 0 0 0 0 0 0 0 0 0 0 0 0 0 0 0 0
0 0 0 0 0 0 0 0 0 0 0 0 0 0 0 0 0 0 0 0 0 -0 0 0 0 0 -0 0 0 0 0 0 0 0 0 0 0 0 0 0 0 0 0 0 0 0 0 0 0 0 0 0 0 0
0 0 0 0 0 0 0 0 0 0 0 0 0 0 0 0 0 0 0 0 -0 -0 0 0 0 0 0 0 0 0 0 0 0 0 0 0 0 0 0 0 0 0 0 0 0 0 0 0 0 0 0 0 0 0
0 -0 0 0 0 0 0 0 0 0 0 0 0 0 0 0 0 0 0 0 0 0 0 0 0 0 0 0 0 0 0 0 0 0 0 0 0 0 0 0 0 0 0 0 0 0 0 0 0 -0 0 0 0 0
0 -0 -0 -0 -0 0 0 0 0 0 0 0 0 0 0 0 0 0 -0 0 0 -0 0 0 0 0 0 0 0 0 0 0 0 0 0 0 0 0 0 0 0 0 0 0 0 0 0 0 0 0 0 0 0 0
-0 -0 -0 -0 -0 -0 -0 0 0 0 0 0 0 0 0 0 0 0 0 0 0 0 0 0 0 0 0 0 0 0 0 0 0 0 0 0 0 0 0 0 0 0 0 0 0 0 0 0 0 0 0 0 0 0
0 0 0 0 -0 -0 -0 0 0 0 0 0 0 0 0 0 0 0 0 0 0 0 0 0 0 0 0 0 0 0 0 0 0 0 0 0 0 0 -0 0 0 0 -0 0 0 -0 -0 0 -0 -0 -0 -0 -0 -0
0 0 0 0 -0 -0 0 0 0 -0 0 0 0 0 0 0 0 0 0 0 0 0 0 0 0 0 0 0 0 0 0 0 0 0 0 0 0 0 -0 -0 -0 -0 0 -0 -0 0 -0 -0 -0 -0 -0 -0 -0 -0
0 -0 -0 -0 0 0 -0 0 0 0 0 0 0 0 -0 0 -0 0 0 0 0 0 0 0 0 0 0 0 0 0 0 0 0 0 0 0 0 0 -0 -0 -0 -0 -0 -0 -0 -0 -0 -0 0 0 0 0 -0 0
0 -0 -0 0 0 -0 -0 0 0 -0 0 0 0 -0 -0 -0 -0 -0 -0 0 0 0 0 0 0 0 0 0 0 0 0 0 0 0 0 0 0 0 -0 -0 -0 -0 -0 0 0 0 -0 -0 -0 -0 0 -0 0 -0
0 -0 -0 0 -0 -0 0 -0 -0 0 0 0 0 -0 0 0 -0 0 0 0 0 0 0 0 0 0 0 0 0 0 0 0 0 0 0 0 0 0 -0 -0 -0 -0 0 0 0 -0 0 -0 -0 -0 0 -0 -0 0
-0 -0 0 0 -0 -0 0 0 0 0 0 0 0 0 -0 0 -0 0 0 0 0 0 0 0 0 0 0 0 0 0 0 0 0 0 0 0 0 0 0 -0 -0 -0 -0 0 0 0 0 -0 -0 -0 -0 -0 -0 -0
-0 -0 0 -0 -0 0 0 0 0 0 0 0 0 0 0 0 -0 0 0 0 0 0 0 0 0 0 0 0 0 0 0 0 0 0 0 0 0 0 0 0 0 -0 0 0 -0 0 0 0 -0 0 -0 -0 0 0
0 0 0 0 0 0 0 0 0 0 0 0 0 0 0 0 0 0 0 0 0 0 0 0 0 0 0 0 0 0 0 0 0 0 0 0 0 0 -0 0 0 -0 -0 -0 0 -0 -0 -0 -0 0 0 0 0 0
-0 -0 -0 0 -0 0 0 0 0 0 0 0 0 0 0 0 0 0 0 0 0 0 0 0 0 0 0 0 0 0 0 0 0 0 0 0 0 -0 -0 0 0 -0 -0 -0 -0 -0 -0 -0 -0 0 0 0 0 -0
0 0 -0 -0 -0 0 0 0 -0 -0 -0 0 -0 0 0 0 0 0 0 0 0 0 0 0 0 0 0 0 0 0 0 0 0 0 -0 0 0 0 0 0 0 0 0 0 -0 -0 0 0 -0 -0 -0 -0 -0 -0
-0 -0 0 0 0 -0 0 0 -0 -0 -0 -0 -0 0 0 0 0 0 0 0 0 0 0 0 0 0 0 0 0 0 0 0 0 0 -0 -0 -0 -0 -0 0 0 0 -0 0 -0 -0 -0 0 -0 0 -0 -0 0 0
0 0 0 0 0 0 0 0 -0 -0 -0 0 0 0 0 0 0 0 0 0 0 0 0 0 0 0 0 0 0 0 0 0 0 0 -0 -0 -0 -0 -0 0 -0 0 0 -0 -0 -0 -0 -0 -0 -0 0 -0 -0 -0
0 0 0 0 0 0 0 0 -0 -0 -0 0 0 0 0 0 0 0 0 0 0 0 0 0 0 0 0 0 0 0 0 0 0 0 0 0 0 -0 0 0 0 0 0 -0 -0 -0 -0 -0 -0 -0 -0 -0 0 -0
0 0 0 0 0 0 0 0 0 -0 -0 0 0 0 0 0 0 0 0 0 0 0 0 0 0 0 0 0 0 0 0 0 0 0 0 0 0 -0 0 0 -0 -0 0 0 -0 0 0 0 0 0 0 0 0 0
0 0 0 0 0 -0 0 -0 -0 -0 -0 0 0 0 0 0 0 0 0 0 0 0 0 0 0 0 0 0 0 0 0 0 0 0 0 0 0 0 0 0 -0 -0 0 -0 -0 -0 -0 0 0 0 0 0 0 0
0 0 0 0 -0 -0 -0 -0 -0 -0 -0 0 0 0 0 0 0 0 0 0 0 0 0 0 0 0 0 0 0 0 0 0 0 0 0 0 0 0 0 0 -0 -0 -0 -0 0 -0 -0 0 0 0 0 0 0 0
-0 0 -0 -0 0 0 -0 -0 -0 0 0 -0 0 0 0 0 0 0 0 0 0 0 0 0 0 0 0 0 0 0 0 0 0 0 0 0 0 0 0 0 0 0 0 0 0 0 0 -0 0 0 0 0 0 0
-0 -0 -0 -0 -0 0 0 -0 -0 0 0 -0 -0 0 0 0 0 0 0 0 0 0 0 0 0 0 0 0 0 0 0 0 0 0 0 0 -0 0 0 0 0 0 0 0 0 0 0 0 0 0 0 0 0 0
0 -0 0 -0 0 0 -0 -0 0 0 0 -0 -0 0 -0 0 0 0 0 0 0 0 0 0 0 0 0 0 0 0 0 0 0 0 0 -0 0 0 0 0 0 0 0 0 0 0 0 0 0 0 0 0 0 0
-0 -0 -0 -0 -0 -0 -0 0 0 0 -0 -0 0 -0 -0 0 -0 0 0 -0 -0 -0 -0 0 0 0 0 0 0 0 0 0 0 0 0 0 0 0 0 0 0 0 0 0 0 0 0 0 0 0 0 0 0 0
-0 -0 -0 -0 0 0 0 -0 -0 -0 -0 0 0 -0 0 0 -0 -0 -0 -0 -0 -0 -0 -0 -0 -0 0 0 0 -0 -0 -0 0 0 0 0 0 0 0 0 0 0 0 0 0 0 0 0 0 0 0 0 0 0
0 -0 -0 0 0 0 0 0 -0 -0 -0 -0 -0 -0 0 0 0 0 -0 -0 -0 -0 -0 -0 0 -0 -0 0 0 -0 0 0 0 0 0 0 0 0 0 0 0 0 0 0 0 0 0 0 0 0 0 0 0 0
Wind_Speed_500mb
33 34 33 31 31 32 33 32 31 28 25 22 17 12 12 17 22 20 15 22 12 4 1 5 0 1 1 3 6 6 8 8 8 9 6 6 12 6 12 21 16 19 18 21 26 32 39 17 5 17 16 19 23 22
34 32 31 31 29 31 32 31 29 27 24 21 17 12 6 10 17 18 10 23 20 6 1 8 8 10 8 2 3 2 7 4 7 5 3 6 11 7 13 17 10 19 20 18 17 9 12 9 12 12 23 23 18 25
32 31 30 28 29 31 31 31 29 26 23 20 17 13 5 5 13 15 13 20 13 4 4 6 6 4 4 11 7 6 5 3 3 4 7 5 11 11 15 13 20 12 15 16 26 27 34 22 29 32 28 24 34 39
30 29 28 27 27 30 31 29 28 26 23 19 15 11 6 3 10 14 10 10 17 3 5 8 3 10 10 12 14 12 2 1 1 6 12 8 10 8 13 17 17 20 20 21 30 38 50 55 49 43 45 46 47 49
28 26 25 26 29 30 29 28 26 26 23 18 12 7 4 2 9 10 7 10 19 7 8 3 2 5 5 8 9 9 13 11 10 11 11 12 17 14 24 21 20 31 29 22 22 36 35 44 53 51 55 58 57 55
26 25 26 27 28 28 29 27 25 23 21 15 8 3 3 1 4 4 3 5 11 18 3 1 0 4 4 5 8 11 12 14 14 13 15 15 24 17 13 16 21 21 22 27 37 45 52 55 57 58 62 51 42 43
25 25 25 26 27 26 26 26 22 21 17 10 3 2 2 3 1 3 1 2 6 14 4 4 8 6 7 7 8 9 11 11 15 16 19 28 24 8 12 25 45 37 22 25 30 35 45 48 52 52 50 54 57 56
21 23 25 25 27 29 27 25 21 17 8 5 4 4 3 2 8 10 6 0 9 4 1 4 5 10 5 7 6 7 9 7 11 11 10 18 19 19 9 17 3 11 23 32 34 35 46 54 56 57 57 59 60 59
21 21 22 24 26 31 30 20 16 8 4 7 6 2 9 8 2 2 3 4 4 2 3 5 4 7 3 3 4 6 6 7 10 10 14 8 11 11 14 15 13 20 24 40 47 51 54 55 56 55 54 54 55 57
22 18 17 25 29 29 26 15 12 2 2 5 7 5 6 2 7 3 5 2 2 5 5 8 3 3 3 1 2 7 7 6 7 4 7 9 16 14 20 16 22 30 40 44 51 53 50 62 58 56 55 54 58 59
17 15 19 24 24 23 22 15 2 2 4 3 1 2 8 2 1 4 6 6 4 5 9 8 6 5 1 9 8 2 6 3 5 3 6 5 4 6 13 19 27 37 42 45 45 49 52 58 63 55 58 64 62 66
15 14 18 25 23 21 18 10 5 4 2 1 3 3 4 4 6 8 6 7 7 5 10 7 3 8 3 4 7 6 6 2 9 2 6 6 1 14 19 27 34 40 43 44 45 67 61 63 59 67 73 70 71 66
18 19 19 16 10 15 13 5 3 3 8 5 4 6 5 8 3 10 11 6 6 12 13 13 6 4 4 7 7 5 9 9 5 6 6 4 17 23 27 33 37 40 43 45 67 56 49 56 56 62 71 70 61 63
19 23 30 26 14 11 10 9 6 7 6 4 6 4 9 9 10 8 9 5 10 5 7 9 6 9 8 10 5 8 5 5 6 5 8 7 18 20 29 33 37 39 40 48 60 57 53 54 66 70 48 45 41 33
21 23 23 10 10 2 8 5 3 6 3 6 7 7 11 15 9 6 6 8 7 6 9 8 9 12 7 8 4 5 6 6 9 9 10 17 18 23 31 33 35 37 42 40 69 58 54 62 68 43 31 25 19 12
23 21 14 10 13 7 6 7 8 6 6 7 11 9 15 12 15 17 19 18 11 10 7 10 6 6 10 6 10 13 6 9 10 8 19 22 20 25 29 30 30 33 34 38 56 46 55 75 57 41 35 38 31 24
20 10 14 15 16 15 10 10 6 8 8 8 12 20 26 23 19 16 10 12 8 11 7 6 4 6 3 8 8 6 8 13 23 31 30 21 20 24 22 23 23 29 30 33 49 50 33 42 40 46 52 45 36 36
17 20 21 16 14 14 15 9 6 8 12 19 14 13 17 21 21 20 15 14 13 15 7 8 8 9 10 18 15 9 14 24 23 22 21 20 22 21 19 19 19 23 25 26 28 37 41 40 45 47 43 46 41 39
21 23 17 12 11 8 5 6 9 10 17 17 22 24 23 24 24 25 24 20 21 16 9 8 10 10 11 8 24 21 19 20 26 26 25 21 20 16 16 16 16 22 23 26 25 28 34 42 39 34 34 39 40 37
19 12 8 17 16 6 5 7 8 10 11 7 18 21 20 19 16 14 13 13 16 10 14 9 10 14 8 1 13 18 19 21 21 21 17 13 11 11 11 11 14 19 20 22 22 25 28 31 36 42 44 40 45 43
5 3 2 16 16 14 8 7 10 11 15 12 17 18 22 15 17 15 10 16 15 10 12 15 8 6 9 18 15 14 10 7 10 10 11 11 10 6 8 11 14 18 19 19 21 27 27 31 33 33 37 41 39 36
9 10 5 12 12 7 11 13 11 11 11 19 26 17 14 11 9 8 11 15 10 11 10 3 7 7 1 1 2 0 2 4 5 4 7 8 11 8 11 13 16 18 17 20 19 22 25 27 28 30 31 35 38 41
16 11 7 11 9 8 9 10 9 9 9 7 6 8 8 7 7 8 8 7 5 4 6 5 10 11 10 10 9 6 5 6 8 8 5 7 10 11 11 12 16 18 20 20 20 23 21 27 28 28 29 29 32 34
18 7 6 9 15 8 7 10 12 10 8 11 6 7 3 3 9 9 5 4 6 13 15 17 17 12 10 7 8 8 5 4 6 7 8 7 7 8 12 14 13 12 10 14 18 17 20 24 25 25 27 31 31 32
5 7 7 10 9 10 8 6 8 9 7 6 6 5 3 5 5 3 4 2 12 18 20 20 15 9 7 11 9 5 1 2 9 11 10 10 11 11 9 10 11 14 10 11 15 17 18 16 19 22 23 24 24 26
7 12 14 9 9 10 6 6 6 6 10 6 8 3 4 3 3 4 5 2 9 21 23 20 16 13 9 6 4 2 3 4 5 9 9 10 13 9 9 8 11 16 13 10 13 16 15 13 12 14 16 18 23 21
8 11 16 15 10 9 11 16 20 13 10 4 2 4 4 4 1 4 4 6 10 19 22 20 17 13 10 9 4 2 4 5 4 3 4 3 4 2 7 12 11 8 8 12 15 14 12 7 11 13 14 16 17 18
14 8 15 12 16 16 13 10 7 6 4 3 5 3 4 6 8 8 3 11 14 22 22 21 19 14 9 6 4 3 4 6 5 4 6 2 2 2 4 2 1 4 7 12 15 11 14 12 12 14 16 15 16 18
12 12 13 18 18 12 13 12 10 7 3 6 6 6 7 5 8 3 5 17 20 24 25 23 19 15 11 9 8 6 4 3 5 5 9 13 15 9 4 2 3 5 5 7 15 15 12 13 12 13 13 12 13 16
22 25 15 12 15 11 17 19 15 11 13 15 14 14 12 9 6 7 11 18 25 25 26 21 18 18 16 14 11 7 9 6 3 7 12 14 13 8 6 6 6 8 7 6 7 8 14 13 12 9 12 12 12 14
9 17 17 25 23 23 25 27 29 31 31 26 20 20 15 8 7 9 15 17 22 24 24 22 21 20 14 11 9 11 15 9 8 9 5 3 2 3 5 5 7 6 5 4 4 8 11 11 12 13 10 11 13 16
18 26 17 13 23 18 15 17 20 19 16 19 16 12 10 10 15 11 21 24 27 30 30 28 24 19 12 9 14 17 19 16 14 11 8 7 6 7 7 6 6 8 6 1 3 6 9 8 8 10 10 8 11 14
21 17 13 16 15 13 17 12 8 9 14 17 17 16 16 12 10 7 13 27 28 31 35 32 26 18 12 11 11 2 3 5 8 11 11 12 14 14 11 8 7 6 8 7 5 5 8 10 9 8 9 10 11 12
Wind_Direction_500mb
325 326 327 329 331 336 338 342 344 345 345 341 341 346 354 8 16 27 13 24 43 339 154 176 89 193 268 297 303 85 212 185 209 240 271 239 266 265 280 264 286 244 225 233 237 259 260 35 227 264 5 332 323 317
321 322 324 324 325 331 334 336 339 340 343 339 335 334 345 8 11 18 13 2 359 127 158 239 226 241 212 209 344 72 30 60 30 272 226 285 243 234 279 269 165 255 286 300 298 274 80 30 10 338 319 309 321 320
319 320 320 320 321 326 330 332 333 336 337 337 331 326 323 359 7 9 6 359 18 352 152 144 126 98 153 203 197 283 109 78 115 9 332 305 264 289 270 258 277 255 264 269 278 259 278 317 296 298 302 301 298 295
319 320 319 318 320 324 326 327 327 328 331 331 331 318 295 330 5 3 8 20 30 352 293 127 197 305 256 221 216 220 228 48 295 280 274 276 274 257 281 304 288 285 299 273 274 281 287 282 289 297 301 294 292 292
320 320 319 319 320 322 322 322 325 322 326 325 321 306 255 310 359 9 63 84 41 34 330 356 93 119 85 138 181 207 221 247 268 246 236 254 267 286 266 264 272 266 265 264 275 297 293 288 289 289 288 293 292 285
318 319 318 319 320 322 320 320 322 326 323 317 311 262 210 265 355 76 244 8 9 27 3 261 282 174 199 196 224 229 234 237 243 263 274 264 264 280 269 265 278 289 278 292 298 293 289 290 286 283 282 282 287 290
318 319 320 321 321 323 322 319 319 325 320 308 289 254 272 326 119 212 327 258 0 20 15 246 162 180 210 227 222 219 219 233 245 265 255 272 275 214 269 267 268 280 307 309 294 296 289 286 288 295 292 287 287 285
320 327 326 324 326 327 323 319 316 321 306 295 290 299 332 350 117 86 126 170 327 40 41 285 134 175 187 191 206 207 228 229 229 264 281 262 279 229 253 257 287 310 308 298 294 291 289 290 288 285 285 285 283 280
322 326 328 327 330 330 323 315 320 315 298 295 278 154 103 106 117 209 271 262 183 175 296 261 264 104 191 224 284 225 253 254 163 249 246 252 248 222 267 299 269 322 311 301 301 296 297 298 288 286 289 292 288 283
314 307 326 334 331 330 330 323 318 293 322 103 125 88 152 161 207 269 24 167 192 217 224 250 307 138 294 331 237 281 205 273 272 201 294 239 257 306 346 327 308 312 313 308 308 303 303 301 307 290 285 290 291 286
306 332 336 330 327 333 324 317 255 146 146 117 99 107 168 338 156 237 220 225 218 221 209 228 245 298 245 287 330 292 323 303 267 137 275 250 296 304 297 302 312 318 317 310 305 304 305 300 297 286 291 289 287 282
311 325 338 338 343 348 329 301 191 170 198 198 204 187 199 231 219 248 203 155 214 231 173 211 182 216 240 243 260 228 268 211 256 70 259 257 16 340 326 321 320 322 318 319 320 313 304 306 298 299 297 292 289 280
320 319 333 337 338 343 346 302 226 228 236 236 203 206 194 176 256 224 189 181 207 182 185 188 189 233 202 221 241 259 234 230 349 235 250 299 327 312 318 319 322 323 326 329 333 327 319 311 314 309 302 292 285 274
338 337 332 335 337 331 309 257 235 234 216 248 220 275 228 195 230 214 211 96 99 182 183 230 200 198 188 218 217 251 249 253 253 261 248 279 342 313 321 323 323 323 331 336 331 326 329 328 323 324 314 307 300 275
313 325 330 300 223 290 14 28 219 212 247 250 222 239 229 244 261 247 253 243 229 245 260 243 235 212 184 244 198 293 238 245 222 240 284 333 320 316 322 326 324 326 330 332 349 343 342 333 335 342 342 332 331 319
318 324 325 280 222 219 337 341 318 253 255 238 233 258 248 265 250 231 237 247 240 234 250 242 238 236 219 235 189 218 231 227 257 289 307 318 314 318 319 318 321 332 335 343 359 345 354 353 13 19 27 30 25 12
314 328 307 275 251 243 295 314 283 235 245 233 240 243 260 284 281 283 265 271 219 233 254 218 213 220 220 239 227 219 242 302 325 311 311 311 309 315 316 313 326 338 334 341 351 356 7 13 6 12 17 16 12 15
304 308 309 265 259 252 284 250 244 248 246 243 250 269 240 257 275 274 260 241 233 239 228 226 226 232 216 247 249 290 285 294 293 293 300 308 308 305 300 308 345 341 329 347 357 355 9 18 18 14 14 15 18 16
307 303 291 243 226 210 245 233 224 261 246 263 267 270 264 267 263 264 262 251 242 243 253 223 238 237 235 305 311 308 305 302 306 307 308 307 303 300 295 306 337 338 336 346 354 2 7 15 13 15 10 13 23 25
312 298 269 201 196 205 254 247 228 264 277 298 273 273 259 265 275 264 253 223 204 195 223 235 249 287 240 85 316 306 310 311 308 314 317 310 307 310 304 330 346 335 343 353 359 8 8 11 13 19 16 23 26 51
319 2 250 189 202 227 262 249 244 244 284 272 281 285 279 252 257 248 231 203 203 232 243 271 280 167 339 281 282 296 311 327 344 331 327 340 352 12 8 356 345 344 357 12 9 9 14 13 14 16 18 29 32 56
225 228 236 206 216 242 257 237 249 281 265 269 288 259 271 258 238 203 183 198 237 256 268 251 160 296 216 268 295 198 341 19 353 357 354 334 331 6 8 24 13 9 25 30 23 20 15 16 18 29 32 28 41 45
216 221 232 214 226 233 255 221 247 241 247 260 247 246 221 217 186 176 240 238 274 219 159 154 138 129 120 110 102 88 78 58 48 41 2 346 360 10 13 14 19 13 18 26 25 29 33 22 23 32 40 44 45 53
187 211 226 212 208 260 241 226 224 260 256 248 251 275 245 201 176 225 249 201 158 157 149 149 149 146 144 141 133 115 95 72 33 52 12 341 344 358 352 356 358 2 10 17 16 27 35 37 36 44 44 51 55 54
228 227 204 250 221 235 238 243 226 240 256 250 271 248 194 204 248 249 320 78 165 166 158 159 167 182 160 136 146 149 326 342 8 1 21 352 343 323 2 12 22 13 1 360 21 28 28 38 48 48 49 45 45 48
236 207 202 221 214 221 239 256 242 271 282 257 225 257 246 265 266 324 5 76 168 172 171 171 173 165 164 177 186 154 46 305 305 309 2 357 7 8 53 12 35 37 29 22 15 8 9 17 40 43 41 32 28 21
240 225 214 228 253 262 272 261 272 277 265 264 246 220 242 267 270 28 71 154 156 171 175 177 177 175 145 139 140 335 332 311 291 314 332 324 343 15 18 20 31 31 34 21 5 1 8 29 38 29 18 20 24 26
244 263 230 226 225 239 262 282 265 256 275 320 279 252 286 344 359 25 31 166 156 164 168 172 176 181 188 199 239 260 279 285 314 343 285 239 17 303 263 312 38 125 87 36 33 54 52 53 36 32 30 30 21 23
231 227 230 237 232 238 226 226 250 265 357 324 328 318 315 316 313 297 188 176 169 174 176 182 195 207 219 224 230 248 247 278 316 315 18 30 41 43 27 122 52 110 114 65 56 65 59 49 36 19 19 20 21 21
236 217 229 233 221 229 230 217 249 267 280 292 299 291 282 288 274 256 196 189 190 196 198 203 205 211 218 210 205 220 231 234 264 331 4 31 39 45 72 124 125 126 120 93 63 36 28 19 15 17 17 19 23 19
223 203 233 243 252 255 258 266 269 270 266 269 273 270 278 288 287 237 200 194 193 193 194 194 192 191 203 216 245 281 291 253 242 223 219 309 16 82 107 143 158 157 147 113 42 17 9 8 15 22 33 27 16 13
216 220 228 243 253 253 270 265 253 247 241 229 246 232 239 245 262 219 212 193 194 197 197 194 197 202 213 267 300 295 281 251 239 220 215 198 224 208 184 159 177 191 184 189 359 4 4 351 360 6 4 2 358 2
213 224 228 266 262 241 224 227 230 247 224 242 245 244 247 262 264 197 213 205 204 203 200 202 206 215 239 282 331 307 158 183 194 209 228 243 232 217 205 203 202 202 223 239 276 327 349 353 331 323 318 323 331 341
Wind_Speed_850mb
33 34 33 31 31 32 33 32 31 28 25 22 17 12 12 17 22 20 15 22 12 4 1 5 0 1 1 3 6 6 8 8 8 9 6 6 12 6 12 21 16 19 18 21 26 32 39 17 5 17 16 19 23 22
34 32 31 31 29 31 32 31 29 27 24 21 17 12 6 10 17 18 10 23 20 6 1 8 8 10 8 2 3 2 7 4 7 5 3 6 11 7 13 17 10 19 20 18 17 9 12 9 12 12 23 23 18 25
32 31 30 28 29 31 31 31 29 26 23 20 17 13 5 5 13 15 13 20 13 4 4 6 6 4 4 11 7 6 5 3 3 4 7 5 11 11 15 13 20 12 15 16 26 27 34 22 29 32 28 24 34 39
30 29 28 27 27 30 31 29 28 26 23 19 15 11 6 3 10 14 10 10 17 3 5 8 3 10 10 12 14 12 2 1 1 6 12 8 10 8 13 17 17 20 20 21 30 38 50 55 49 43 45 46 47 49
28 26 25 26 29 30 29 28 26 26 23 18 12 7 4 2 9 10 7 10 19 7 8 3 2 5 5 8 9 9 13 11 10 11 11 12 17 14 24 21 20 31 29 22 22 36 35 44 53 51 55 58 57 55
26 25 26 27 28 28 29 27 25 23 21 15 8 3 3 1 4 4 3 5 11 18 3 1 0 4 4 5 8 11 12 14 14 13 15 15 24 17 13 16 21 21 22 27 37 45 52 55 57 58 62 51 42 43
25 25 25 26 27 26 26 26 22 21 17 10 3 2 2 3 1 3 1 2 6 14 4 4 8 6 7 7 8 9 11 11 15 16 19 28 24 8 12 25 45 37 22 25 30 35 45 48 52 52 50 54 57 56
21 23 25 25 27 29 27 25 21 17 8 5 4 4 3 2 8 10 6 0 9 4 1 4 5 10 5 7 6 7 9 7 11 11 10 18 19 19 9 17 3 11 23 32 34 35 46 54 56 57 57 59 60 59
21 21 22 24 26 31 30 20 16 8 4 7 6 2 9 8 2 2 3 4 4 2 3 5 4 7 3 3 4 6 6 7 10 10 14 8 11 11 14 15 13 20 24 40 47 51 54 55 56 55 54 54 55 57
22 18 17 25 29 29 26 15 12 2 2 5 7 5 6 2 7 3 5 2 2 5 5 8 3 3 3 1 2 7 7 6 7 4 7 9 16 14 20 16 22 30 40 44 51 53 50 62 58 56 55 54 58 59
17 15 19 24 24 23 22 15 2 2 4 3 1 2 8 2 1 4 6 6 4 5 9 8 6 5 1 9 8 2 6 3 5 3 6 5 4 6 13 19 27 37 42 45 45 49 52 58 63 55 58 64 62 66
15 14 18 25 23 21 18 10 5 4 2 1 3 3 4 4 6 8 6 7 7 5 10 7 3 8 3 4 7 6 6 2 9 2 6 6 1 14 19 27 34 40 43 44 45 67 61 63 59 67 73 70 71 66
18 19 19 16 10 15 13 5 3 3 8 5 4 6 5 8 3 10 11 6 6 12 13 13 6 4 4 7 7 5 9 9 5 6 6 4 17 23 27 33 37 40 43 45 67 56 49 56 56 62 71 70 61 63
19 23 30 26 14 11 10 9 6 7 6 4 6 4 9 9 10 8 9 5 10 5 7 9 6 9 8 10 5 8 5 5 6 5 8 7 18 20 29 33 37 39 40 48 60 57 53 54 66 70 48 45 41 33
21 23 23 10 10 2 8 5 3 6 3 6 7 7 11 15 9 6 6 8 7 6 9 8 9 12 7 8 4 5 6 6 9 9 10 17 18 23 31 33 35 37 42 40 69 58 54 62 68 43 31 25 19 12
23 21 14 10 13 7 6 7 8 6 6 7 11 9 15 12 15 17 19 18 11 10 7 10 6 6 10 6 10 13 6 9 10 8 19 22 20 25 29 30 30 33 34 38 56 46 55 75 57 41 35 38 31 24
20 10 14 15 16 15 10 10 6 8 8 8 12 20 26 23 19 16 10 12 8 11 7 6 4 6 3 8 8 6 8 13 23 31 30 21 20 24 22 23 23 29 30 33 49 50 33 42 40 46 52 45 36 36
17 20 21 16 14 14 15 9 6 8 12 19 14 13 17 21 21 20 15 14 13 15 7 8 8 9 10 18 15 9 14 24 23 22 21 20 22 21 19 19 19 23 25 26 28 37 41 40 45 47 43 46 41 39
21 23 17 12 11 8 5 6 9 10 17 17 22 24 23 24 24 25 24 20 21 16 9 8 10 10 11 8 24 21 19 20 26 26 25 21 20 16 16 16 16 22 23 26 25 28 34 42 39 34 34 39 40 37
19 12 8 17 16 6 5 7 8 10 11 7 18 21 20 19 16 14 13 13 16 10 14 9 10 14 8 1 13 18 19 21 21 21 17 13 11 11 11 11 14 19 20 22 22 25 28 31 36 42 44 40 45 43
5 3 2 16 16 14 8 7 10 11 15 12 17 18 22 15 17 15 10 16 15 10 12 15 8 6 9 18 15 14 10 7 10 10 11 11 10 6 8 11 14 18 19 19 21 27 27 31 33 33 37 41 39 36
9 10 5 12 12 7 11 13 11 11 11 19 26 17 14 11 9 8 11 15 10 11 10 3 7 7 1 1 2 0 2 4 5 4 7 8 11 8 11 13 16 18 17 20 19 22 25 27 28 30 31 35 38 41
16 11 7 11 9 8 9 10 9 9 9 7 6 8 8 7 7 8 8 7 5 4 6 5 10 11 10 10 9 6 5 6 8 8 5 7 10 11 11 12 16 18 20 20 20 23 21 27 28 28 29 29 32 34
18 7 6 9 15 8 7 10 12 10 8 11 6 7 3 3 9 9 5 4 6 13 15 17 17 12 10 7 8 8 5 4 6 7 8 7 7 8 12 14 13 12 10 14 18 17 20 24 25 25 27 31 31 32
5 7 7 10 9 10 8 6 8 9 7 6 6 5 3 5 5 3 4 2 12 18 20 20 15 9 7 11 9 5 1 2 9 11 10 10 11 11 9 10 11 14 10 11 15 17 18 16 19 22 23 24 24 26
7 12 14 9 9 10 6 6 6 6 10 6 8 3 4 3 3 4 5 2 9 21 23 20 16 13 9 6 4 2 3 4 5 9 9 10 13 9 9 8 11 16 13 10 13 16 15 13 12 14 16 18 23 21
8 11 16 15 10 9 11 16 20 13 10 4 2 4 4 4 1 4 4 6 10 19 22 20 17 13 10 9 4 2 4 5 4 3 4 3 4 2 7 12 11 8 8 12 15 14 12 7 11 13 14 16 17 18
14 8 15 12 16 16 13 10 7 6 4 3 5 3 4 6 8 8 3 11 14 22 22 21 19 14 9 6 4 3 4 6 5 4 6 2 2 2 4 2 1 4 7 12 15 11 14 12 12 14 16 15 16 18
12 12 13 18 18 12 13 12 10 7 3 6 6 6 7 5 8 3 5 17 20 24 25 23 19 15 11 9 8 6 4 3 5 5 9 13 15 9 4 2 3 5 5 7 15 15 12 13 12 13 13 12 13 16
22 25 15 12 15 11 17 19 15 11 13 15 14 14 12 9 6 7 11 18 25 25 26 21 18 18 16 14 11 7 9 6 3 7 12 14 13 8 6 6 6 8 7 6 7 8 14 13 12 9 12 12 12 14
9 17 17 25 23 23 25 27 29 31 31 26 20 20 15 8 7 9 15 17 22 24 24 22 21 20 14 11 9 11 15 9 8 9 5 3 2 3 5 5 7 6 5 4 4 8 11 11 12 13 10 11 13 16
18 26 17 13 23 18 15 17 20 19 16 19 16 12 10 10 15 11 21 24 27 30 30 28 24 19 12 9 14 17 19 16 14 11 8 7 6 7 7 6 6 8 6 1 3 6 9 8 8 10 10 8 11 14
21 17 13 16 15 13 17 12 8 9 14 17 17 16 16 12 10 7 13 27 28 31 35 32 26 18 12 11 11 2 3 5 8 11 11 12 14 14 11 8 7 6 8 7 5 5 8 10 9 8 9 10 11 12
Wind_Direction_850mb
325 326 327 329 331 336 338 342 344 345 345 341 341 346 354 8 16 27 13 24 43 339 154 176 89 193 268 297 303 85 212 185 209 240 271 239 266 265 280 264 286 244 225 233 237 259 260 35 227 264 5 332 323 317
321 322 324 324 325 331 334 336 339 340 343 339 335 334 345 8 11 18 13 2 359 127 158 239 226 241 212 209 344 72 30 60 30 272 226 285 243 234 279 269 165 255 286 300 298 274 80 30 10 338 319 309 321 320
319 320 320 320 321 326 330 332 333 336 337 337 331 326 323 359 7 9 6 359 18 352 152 144 126 98 153 203 197 283 109 78 115 9 332 305 264 289 270 258 277 255 264 269 278 259 278 317 296 298 302 301 298 295
319 320 319 318 320 324 326 327 327 328 331 331 331 318 295 330 5 3 8 20 30 352 293 127 197 305 256 221 216 220 228 48 295 280 274 276 274 257 281 304 288 285 299 273 274 281 287 282 289 297 301 294 292 292
320 320 319 319 320 322 322 322 325 322 326 325 321 306 255 310 359 9 63 84 41 34 330 356 93 119 85 138 181 207 221 247 268 246 236 254 267 286 266 264 272 266 265 264 275 297 293 288 289 289 288 293 292 285
318 319 318 319 320 322 320 320 322 326 323 317 311 262 210 265 355 76 244 8 9 27 3 261 282 174 199 196 224 229 234 237 243 263 274 264 264 280 269 265 278 289 278 292 298 293 289 290 286 283 282 282 287 290
318 319 320 321 321 323 322 319 319 325 320 308 289 254 272 326 119 212 327 258 0 20 15 246 162 180 210 227 222 219 219 233 245 265 255 272 275 214 269 267 268 280 307 309 294 296 289 286 288 295 292 287 287 285
320 327 326 324 326 327 323 319 316 321 306 295 290 299 332 350 117 86 126 170 327 40 41 285 134 175 187 191 206 207 228 229 229 264 281 262 279 229 253 257 287 310 308 298 294 291 289 290 288 285 285 285 283 280
322 326 328 327 330 330 323 315 320 315 298 295 278 154 103 106 117 209 271 262 183 175 296 261 264 104 191 224 284 225 253 254 163 249 246 252 248 222 267 299 269 322 311 301 301 296 297 298 288 286 289 292 288 283
314 307 326 334 331 330 330 323 318 293 322 103 125 88 152 161 207 269 24 167 192 217 224 250 307 138 294 331 237 281 205 273 272 201 294 239 257 306 346 327 308 312 313 308 308 303 303 301 307 290 285 290 291 286
306 332 336 330 327 333 324 317 255 146 146 117 99 107 168 338 156 237 220 225 218 221 209 228 245 298 245 287 330 292 323 303 267 137 275 250 296 304 297 302 312 318 317 310 305 304 305 300 297 286 291 289 287 282
311 325 338 338 343 348 329 301 191 170 198 198 204 187 199 231 219 248 203 155 214 231 173 211 182 216 240 243 260 228 268 211 256 70 259 257 16 340 326 321 320 322 318 319 320 313 304 306 298 299 297 292 289 280
320 319 333 337 338 343 346 302 226 228 236 236 203 206 194 176 256 224 189 181 207 182 185 188 189 233 202 221 241 259 234 230 349 235 250 299 327 312 318 319 322 323 326 329 333 327 319 311 314 309 302 292 285 274
338 337 332 335 337 331 309 257 235 234 216 248 220 275 228 195 230 214 211 96 99 182 183 230 200 198 188 218 217 251 249 253 253 261 248 279 342 313 321 323 323 323 331 336 331 326 329 328 323 324 314 307 300 275
313 325 330 300 223 290 14 28 219 212 247 250 222 239 229 244 261 247 253 243 229 245 260 243 235 212 184 244 198 293 238 245 222 240 284 333 320 316 322 326 324 326 330 332 349 343 342 333 335 342 342 332 331 319
318 324 325 280 222 219 337 341 318 253 255 238 233 258 248 265 250 231 237 247 240 234 250 242 238 236 219 235 189 218 231 227 257 289 307 318 314 318 319 318 321 332 335 343 359 345 354 353 13 19 27 30 25 12
314 328 307 275 251 243 295 314 283 235 245 233 240 243 260 284 281 283 265 271 219 233 254 218 213 220 220 239 227 219 242 302 325 311 311 311 309 315 316 313 326 338 334 341 351 356 7 13 6 12 17 16 12 15
304 308 309 265 259 252 284 250 244 248 246 243 250 269 240 257 275 274 260 241 233 239 228 226 226 232 216 247 249 290 285 294 293 293 300 308 308 305 300 308 345 341 329 347 357 355 9 18 18 14 14 15 18 16
307 303 291 243 226 210 245 233 224 261 246 263 267 270 264 267 263 264 262 251 242 243 253 223 238 237 235 305 311 308 305 302 306 307 308 307 303 300 295 306 337 338 336 346 354 2 7 15 13 15 10 13 23 25
312 298 269 201 196 205 254 247 228 264 277 298 273 273 259 265 275 264 253 223 204 195 223 235 249 287 240 85 316 306 310 311 308 314 317 310 307 310 304 330 346 335 343 353 359 8 8 11 13 19 16 23 26 51
319 2 250 189 202 227 262 249 244 244 284 272 281 285 279 252 257 248 231 203 203 232 243 271 280 167 339 281 282 296 311 327 344 331 327 340 352 12 8 356 345 344 357 12 9 9 14 13 14 16 18 29 32 56
225 228 236 206 216 242 257 237 249 281 265 269 288 259 271 258 238 203 183 198 237 256 268 251 160 296 216 268 295 198 341 19 353 357 354 334 331 6 8 24 13 9 25 30 23 20 15 16 18 29 32 28 41 45
216 221 232 214 226 233 255 221 247 241 247 260 247 246 221 217 186 176 240 238 274 219 159 154 138 129 120 110 102 88 78 58 48 41 2 346 360 10 13 14 19 13 18 26 25 29 33 22 23 32 40 44 45 53
187 211 226 212 208 260 241 226 224 260 256 248 251 275 245 201 176 225 249 201 158 157 149 149 149 146 144 141 133 115 95 72 33 52 12 341 344 358 352 356 358 2 10 17 16 27 35 37 36 44 44 51 55 54
228 227 204 250 221 235 238 243 226 240 256 250 271 248 194 204 248 249 320 78 165 166 158 159 167 182 160 136 146 149 326 342 8 1 21 352 343 323 2 12 22 13 1 360 21 28 28 38 48 48 49 45 45 48
236 207 202 221 214 221 239 256 242 271 282 257 225 257 246 265 266 324 5 76 168 172 171 171 173 165 164 177 186 154 46 305 305 309 2 357 7 8 53 12 35 37 29 22 15 8 9 17 40 43 41 32 28 21
240 225 214 228 253 262 272 261 272 277 265 264 246 220 242 267 270 28 71 154 156 171 175 177 177 175 145 139 140 335 332 311 291 314 332 324 343 15 18 20 31 31 34 21 5 1 8 29 38 29 18 20 24 26
244 263 230 226 225 239 262 282 265 256 275 320 279 252 286 344 359 25 31 166 156 164 168 172 176 181 188 199 239 260 279 285 314 343 285 239 17 303 263 312 38 125 87 36 33 54 52 53 36 32 30 30 21 23
231 227 230 237 232 238 226 226 250 265 357 324 328 318 315 316 313 297 188 176 169 174 176 182 195 207 219 224 230 248 247 278 316 315 18 30 41 43 27 122 52 110 114 65 56 65 59 49 36 19 19 20 21 21
236 217 229 233 221 229 230 217 249 267 280 292 299 291 282 288 274 256 196 189 190 196 198 203 205 211 218 210 205 220 231 234 264 331 4 31 39 45 72 124 125 126 120 93 63 36 28 19 15 17 17 19 23 19
223 203 233 243 252 255 258 266 269 270 266 269 273 270 278 288 287 237 200 194 193 193 194 194 192 191 203 216 245 281 291 253 242 223 219 309 16 82 107 143 158 157 147 113 42 17 9 8 15 22 33 27 16 13
216 220 228 243 253 253 270 265 253 247 241 229 246 232 239 245 262 219 212 193 194 197 197 194 197 202 213 267 300 295 281 251 239 220 215 198 224 208 184 159 177 191 184 189 359 4 4 351 360 6 4 2 358 2
213 224 228 266 262 241 224 227 230 247 224 242 245 244 247 262 264 197 213 205 204 203 200 202 206 215 239 282 331 307 158 183 194 209 228 243 232 217 205 203 202 202 223 239 276 327 349 353 331 323 318 323 331 341